Location: Kam�li
(14.6864°N, 3.1482°W)
Time: 23:25:47
(UTC+00:00)

Cosmos 1939 Rocket - Pass Details

Date: 29 October 2020
Orbit: 533 x 584 km, 97.4° (Epoch: 03 December)

Event Time Altitude Azimuth Distance (km) Brightness Sun altitude
Rises 18:21:55 0° 157° (SSE) 2,760 6.3 -9.5°
Reaches altitude 10° 18:24:07 10° 151° (SSE) 1,856 5.3 -10.0°
Maximum altitude 18:27:59 46° 78° (ENE) 755 3.1 -10.9°
Drops below altitude 10° 18:31:46 10° 4° (N) 1,828 5.3 -11.8°
Sets 18:33:56 0° 358° (N) 2,713 6.3 -12.4°
